This is the latest recevied weather packets stored in our database for station/object YF9UAG-15. If no packets are shown the sender has not sent any weather packets the latest 10 day(s).
| Time | Temp. | Humidity | Pressure | Rain* | Wind** | Luminosity | Snow |
|---|---|---|---|---|---|---|---|
| 1778119261 | 33.89° C | 77% | 1006 hPa | - | - | - | - |
| 1778119140 | 34.44° C | 75% | 1006.1 hPa | - | - | - | - |
| 1778119019 | 34.44° C | 75% | 1006.1 hPa | - | - | - | - |
| 1778118899 | 34.44° C | 75% | 1006.1 hPa | - | - | - | - |
| 1778118777 | 34.44° C | 76% | 1006.1 hPa | - | - | - | - |
| 1778118656 | 33.89° C | 76% | 1006.3 hPa | - | - | - | - |
| 1778118536 | 34.44° C | 78% | 1006.4 hPa | - | - | - | - |
| 1778118415 | 33.89° C | 80% | 1006.4 hPa | - | - | - | - |
| 1778118294 | 33.33° C | 82% | 1006.5 hPa | - | - | - | - |
| 1778118173 | 33.33° C | 83% | 1006.5 hPa | - | - | - | - |
| 1778118052 | 33.33° C | 84% | 1006.7 hPa | - | - | - | - |
| 1778117931 | 33.89° C | 81% | 1006.7 hPa | - | - | - | - |
| 1778117810 | 34.44° C | 79% | 1006.7 hPa | - | - | - | - |
| 1778117689 | 35° C | 77% | 1006.7 hPa | - | - | - | - |
| 1778117568 | 35° C | 77% | 1006.7 hPa | - | - | - | - |
| 1778117447 | 34.44° C | 79% | 1006.8 hPa | - | - | - | - |
| 1778117326 | 34.44° C | 80% | 1006.7 hPa | - | - | - | - |
| 1778117205 | 34.44° C | 81% | 1006.8 hPa | - | - | - | - |
| 1778117084 | 34.44° C | 81% | 1006.8 hPa | - | - | - | - |
| 1778116963 | 35° C | 79% | 1006.9 hPa | - | - | - | - |
| 1778116842 | 34.44° C | 78% | 1007 hPa | - | - | - | - |
| 1778116721 | 35° C | 75% | 1007 hPa | - | - | - | - |
| 1778116600 | 35° C | 74% | 1007 hPa | - | - | - | - |
| 1778116480 | 34.44° C | 75% | 1007 hPa | - | - | - | - |
| 1778116359 | 34.44° C | 75% | 1007 hPa | - | - | - | - |
* Rain since midnight (hover to see other rain measurements)
** Current wind speed in m/s (hover to see current wind gust speed)